シューメーカー-レヴィ第2彗星

137P/Shoemaker-Levy 2 (2018)

English version
Home page
Updated on July 3, 2021

---------------------------------------------------------------------

・ プロフィール

・ 写真集

・ 軌道要素

Epoch 2018 Dec. 28.0 TT = JDT 2458480.5
T 2018 Dec. 13.39057 TT                                 Rudenko
q   1.9302215            (2000.0)            P               Q
n   0.10259450     Peri.  141.01592     +0.96808254     -0.24132959
a   4.5191143      Node   233.08072     +0.20352952     +0.91447977
e   0.5728761      Incl.    4.85386     +0.14625983     +0.32478730
P   9.61
From 1205 observations 1990 Sept. 16-2021 Apr. 17, mean residual 0".9.

・ 星図

・ 光度変化

        H = 14.0  G = 0.15

---------------------------------------------------------------------

軌道要素はM.P.E.C. 2021-J28に掲載されたものです。
星図はステラナビゲータ Ver.10 (アストロアーツ) で作成したものです。
光度グラフはComet for Windowsで作成したものです。

---------------------------------------------------------------------

Copyright(C) Seiichi Yoshida (comet@aerith.net). All rights reserved.